Wind_Speed
15 13 11 9 8 7 6 5 7 10 12 15 19 22 24 25 27 28 29 30 30 31 32 32 32 31 32 33 33 33 34 34 35 35 34 33 33 33 33 34 34 34 34
18 16 14 12 9 8 7 6 6 7 9 11 14 17 21 24 25 27 28 29 29 29 29 30 30 31 32 32 32 32 32 32 33 34 34 33 32 31 31 32 33 33 32
17 17 16 14 13 11 10 8 7 6 6 8 10 12 15 18 22 25 26 27 27 27 27 28 29 30 30 30 30 30 30 30 30 31 30 31 31 31 29 29 29 29 30
20 19 18 16 14 12 11 11 9 8 7 6 7 8 11 13 16 18 21 23 24 26 26 27 27 28 29 28 28 28 29 29 28 28 28 29 29 29 28 28 27 27 27
20 20 20 19 17 15 14 13 12 10 9 7 7 7 8 10 12 14 16 18 20 22 23 25 25 26 26 27 27 27 27 28 27 26 25 24 24 25 25 24 24 23 23
21 21 20 19 18 17 17 15 14 12 11 9 8 8 8 9 10 11 13 15 16 18 20 21 22 23 24 24 24 25 24 24 25 25 24 23 21 21 21 21 21 21 21
22 21 21 20 19 18 18 18 17 16 14 12 11 10 9 8 8 9 11 13 14 15 16 18 19 20 21 21 20 20 20 20 21 21 21 21 21 19 19 19 19 19 18
22 22 21 21 20 20 19 19 19 18 16 14 13 11 10 9 7 7 8 10 11 12 14 14 16 16 16 17 17 16 17 17 17 18 19 19 19 18 17 16 16 15 14
22 22 22 22 22 21 20 20 20 19 18 16 15 13 11 10 8 7 6 6 8 9 10 10 10 11 12 12 13 14 14 14 14 14 14 14 14 15 15 14 13 12 12
22 23 23 23 22 22 22 22 22 21 19 18 17 15 13 11 9 7 7 5 4 3 4 5 6 7 7 9 10 11 11 12 12 12 12 12 12 11 11 10 10 9 9
22 23 24 24 24 23 23 23 23 22 21 20 19 17 16 13 11 10 9 7 5 4 2 1 4 5 6 7 7 8 8 8 9 9 9 10 10 9 9 9 9 8 7
22 23 24 24 24 24 24 24 24 23 23 22 20 19 18 17 15 13 12 10 9 8 7 6 5 4 5 7 7 7 6 6 6 7 8 8 8 8 8 7 7 6 5
21 22 23 24 24 25 24 25 24 24 24 23 22 21 20 19 18 17 16 14 12 11 11 10 10 9 8 8 8 7 6 6 6 6 6 6 6 6 6 6 6 5 5
20 21 22 23 23 24 24 25 25 25 24 24 23 22 22 22 21 20 19 18 16 15 14 13 13 12 11 10 9 8 7 6 5 5 5 5 5 5 5 5 5 5 4
18 19 20 21 22 23 24 24 24 25 24 24 24 23 23 22 22 22 21 20 20 18 16 15 15 13 12 11 10 9 8 8 7 7 6 6 5 5 4 4 4 4 4
15 16 17 18 20 21 22 23 23 24 24 24 24 23 23 23 22 22 21 20 20 19 18 17 16 14 13 12 11 10 10 9 9 8 7 7 6 6 5 4 4 3 3
12 13 14 15 16 18 19 20 21 22 22 22 22 22 22 22 22 22 21 20 20 19 18 18 17 15 14 13 13 12 11 10 10 9 9 8 7 6 5 5 4 3 2
11 11 12 12 13 14 15 16 17 18 19 20 20 20 20 20 20 20 20 20 19 18 18 17 17 16 15 14 13 12 11 11 10 9 8 7 6 6 5 5 4 4 3
10 10 10 10 11 11 11 12 13 14 15 16 17 17 18 18 18 18 18 18 18 17 17 16 16 15 15 14 13 12 11 11 10 9 8 8 7 6 5 5 4 4 3
9 9 9 9 9 9 9 10 10 11 11 12 13 13 14 14 15 15 16 16 15 15 15 15 14 14 13 13 12 11 10 9 9 8 8 8 7 6 5 5 4 3 2
10 10 9 9 8 8 8 8 8 8 9 9 10 10 10 11 11 11 12 12 12 13 12 12 11 11 10 10 9 9 8 8 7 7 6 6 5 5 4 3 2 2 2
12 11 11 10 10 9 9 8 8 8 8 8 8 8 8 8 8 7 7 8 8 8 9 9 9 9 8 8 7 7 6 6 5 5 4 4 3 3 3 2 2 2 2
15 14 13 12 12 11 10 10 9 9 8 8 8 8 8 7 7 6 6 6 6 6 6 6 6 5 5 5 5 4 4 4 3 3 3 3 3 3 3 3 4 4 5
18 17 16 15 15 14 13 12 12 11 10 10 9 9 9 8 8 7 7 7 6 6 6 5 5 5 5 5 5 5 4 4 4 5 5 5 5 5 5 6 6 6 7
21 20 19 18 17 17 16 15 14 14 13 13 12 12 11 11 11 10 10 9 9 8 8 8 8 8 7 7 7 7 7 7 7 7 7 7 7 7 8 8 8 9 9
25 24 23 22 21 20 19 19 18 17 16 16 15 15 14 14 14 13 13 13 13 12 12 12 12 12 11 11 11 11 11 11 11 11 11 11 11 11 11 11 12 12 12
Wind_Direction
19 18 11 4 353 344 322 291 260 250 249 247 244 241 241 241 242 243 243 242 244 246 246 246 248 249 250 250 252 253 254 255 256 256 258 259 260 259 259 259 261 261 262
28 26 24 19 10 1 352 333 306 282 267 261 256 250 246 243 243 244 245 244 246 246 247 247 249 251 252 252 253 254 255 257 258 258 258 259 260 260 262 263 262 261 261
28 29 29 26 25 21 15 2 343 323 299 280 271 263 256 251 249 247 246 248 248 249 249 248 249 251 252 253 253 253 255 256 258 258 259 260 260 260 262 263 262 260 260
34 33 32 31 29 25 20 14 7 356 339 318 294 279 269 261 255 253 250 250 251 251 252 251 251 252 253 254 254 254 255 255 256 257 260 260 259 258 257 258 258 260 260
33 33 33 34 34 33 29 24 18 12 3 347 328 308 289 277 266 260 258 256 254 252 252 253 253 252 252 253 253 254 253 253 255 254 256 256 256 254 252 253 255 255 257
35 34 34 34 34 33 29 26 22 15 8 357 343 327 310 297 282 270 263 260 259 256 254 253 254 253 252 253 253 252 253 253 251 251 252 253 251 249 247 248 251 252 253
33 32 32 31 30 28 26 23 21 17 12 5 357 347 335 318 301 284 273 267 262 261 257 254 254 253 251 251 250 249 249 248 247 247 249 247 246 247 247 248 248 247 249
31 31 30 29 27 25 24 22 19 16 14 11 4 357 350 340 327 307 290 276 267 264 259 256 252 251 248 244 243 244 243 242 240 239 240 241 243 243 242 242 242 242 243
29 29 28 27 26 25 24 22 20 18 17 14 11 7 1 354 347 336 323 301 280 267 256 249 245 246 241 236 236 238 238 236 235 234 233 233 233 233 236 236 235 237 244
29 28 27 26 25 25 24 22 20 20 20 19 18 17 15 11 6 359 353 341 317 288 256 239 229 223 217 215 218 220 222 221 221 221 223 224 219 217 221 226 229 234 241
29 28 28 27 27 26 25 24 24 25 25 26 27 28 29 29 26 25 26 29 29 38 50 153 194 199 197 191 192 195 200 203 205 206 209 207 206 209 216 223 224 225 233
29 29 29 29 29 28 28 28 29 31 32 33 35 37 38 40 40 41 42 50 55 64 72 85 104 130 147 152 156 160 160 166 172 174 182 191 202 208 213 218 218 216 227
28 29 29 30 30 30 31 32 33 35 37 39 41 43 44 46 48 48 50 58 62 70 75 84 94 106 117 126 127 129 131 128 133 148 167 183 193 201 207 209 211 211 212
27 28 29 30 31 33 34 35 36 38 40 42 44 47 49 51 52 54 58 62 68 71 73 80 88 95 101 108 112 116 119 118 121 130 144 161 176 184 189 193 194 196 202
25 28 29 31 32 34 36 37 39 40 42 44 47 49 52 54 55 57 61 65 67 69 73 77 83 88 92 96 101 109 112 112 115 118 122 128 137 149 159 167 176 184 195
21 24 27 29 32 34 36 38 40 42 44 46 48 51 53 55 57 59 61 64 66 68 70 74 79 83 86 90 92 95 100 105 110 113 114 116 118 123 130 139 155 174 187
14 17 21 25 28 31 33 36 38 41 44 46 48 50 52 54 56 59 61 63 65 67 68 70 74 78 83 87 88 89 92 96 101 103 105 106 107 111 115 120 124 134 147
5 9 13 16 20 24 28 31 34 37 40 44 46 48 50 52 54 56 58 60 63 66 68 69 72 75 79 83 84 86 88 89 92 95 96 99 102 105 107 109 109 110 113
352 356 1 6 10 14 18 22 26 30 34 38 42 45 47 50 52 54 56 58 61 63 66 69 71 73 76 80 80 81 84 85 84 85 86 90 94 96 97 100 103 103 103
334 340 343 348 354 359 4 8 12 18 23 27 32 36 41 45 48 51 54 56 58 61 63 66 68 70 73 75 76 78 80 79 78 80 81 84 87 88 89 91 91 88 85
313 319 325 329 332 338 343 347 353 358 3 9 15 21 26 32 38 44 48 51 53 55 57 59 61 63 66 70 71 70 70 72 73 74 77 78 77 74 70 66 57 44 23
296 301 305 310 313 317 321 326 331 334 340 346 352 357 4 11 18 26 32 37 39 42 45 48 50 52 54 56 58 60 61 61 61 62 62 56 44 31 21 15 5 351 342
284 286 289 293 297 300 302 305 309 314 317 320 325 331 336 341 347 352 355 358 3 8 13 17 22 26 28 29 31 32 30 27 24 21 13 1 350 343 336 330 325 321 319
276 278 280 282 284 286 288 291 293 295 298 301 304 306 310 313 316 320 322 324 325 326 329 333 335 336 336 335 333 332 330 324 321 319 320 320 319 317 313 309 305 304 304
270 272 274 275 277 278 280 282 285 286 287 289 290 291 293 295 297 298 298 299 301 302 303 302 303 304 305 304 303 304 305 303 301 300 301 302 303 303 301 299 297 296 297
266 267 269 270 272 273 274 276 278 280 282 283 284 284 285 286 287 288 289 289 289 289 289 290 290 290 289 289 289 289 289 289 289 289 288 289 290 291 292 293 292 291 292
Height
5776 5774 5772 5770 5769 5768 5767 5767 5767 5768 5769 5771 5773 5775 5777 5780 5783 5786 5790 5792 5795 5798 5801 5803 5806 5808 5811 5813 5815 5818 5820 5822 5825 5827 5829 5831 5833 5834 5836 5838 5839 5841 5842
5779 5776 5774 5772 5770 5769 5768 5767 5767 5767 5767 5768 5769 5770 5772 5774 5777 5780 5783 5785 5788 5790 5793 5795 5798 5800 5802 5805 5807 5809 5811 5813 5815 5817 5820 5822 5824 5826 5827 5829 5831 5832 5833
5782 5779 5777 5774 5772 5770 5769 5768 5767 5766 5765 5766 5766 5767 5768 5769 5771 5773 5776 5778 5780 5782 5784 5787 5790 5792 5794 5796 5798 5800 5803 5805 5807 5809 5811 5813 5815 5817 5819 5821 5822 5824 5825
5786 5783 5780 5777 5775 5772 5771 5769 5767 5766 5765 5764 5764 5764 5764 5765 5766 5768 5769 5771 5773 5775 5777 5779 5781 5784 5786 5788 5790 5792 5794 5797 5799 5801 5803 5805 5807 5809 5812 5813 5815 5817 5818
5790 5786 5783 5780 5777 5775 5773 5770 5768 5766 5765 5763 5762 5762 5762 5762 5762 5763 5764 5765 5767 5768 5770 5772 5774 5776 5778 5780 5782 5785 5787 5789 5791 5794 5796 5798 5800 5802 5805 5806 5808 5810 5811
5794 5790 5787 5784 5781 5778 5775 5772 5770 5767 5765 5763 5761 5760 5759 5759 5759 5759 5760 5760 5761 5762 5764 5765 5767 5769 5771 5772 5775 5777 5780 5782 5785 5787 5790 5792 5794 5796 5798 5800 5802 5804 5805
5798 5794 5791 5787 5784 5781 5777 5774 5771 5768 5765 5763 5761 5759 5757 5756 5755 5755 5755 5755 5756 5757 5758 5759 5761 5762 5764 5766 5768 5771 5773 5776 5779 5782 5784 5786 5788 5790 5792 5794 5796 5798 5800
5801 5798 5794 5790 5787 5783 5780 5776 5772 5769 5766 5763 5760 5758 5756 5754 5753 5752 5751 5751 5752 5752 5753 5754 5756 5757 5759 5761 5764 5766 5769 5771 5774 5776 5779 5781 5783 5785 5787 5790 5792 5793 5795
5805 5801 5797 5793 5789 5786 5782 5778 5774 5770 5767 5763 5760 5757 5755 5753 5751 5750 5749 5748 5748 5748 5749 5750 5752 5753 5755 5757 5760 5762 5765 5767 5769 5771 5774 5776 5778 5781 5783 5786 5788 5790 5791
5808 5804 5800 5796 5792 5788 5784 5780 5776 5772 5768 5764 5760 5757 5754 5752 5750 5749 5747 5746 5746 5746 5746 5747 5749 5750 5752 5754 5757 5759 5761 5764 5766 5769 5771 5774 5776 5778 5780 5783 5785 5787 5788
5812 5808 5804 5799 5795 5791 5787 5783 5778 5774 5770 5766 5762 5759 5756 5753 5751 5749 5747 5746 5745 5745 5745 5746 5747 5749 5751 5753 5755 5757 5760 5762 5764 5766 5769 5771 5774 5776 5778 5780 5782 5784 5786
5815 5811 5807 5803 5799 5795 5790 5786 5782 5777 5773 5769 5766 5762 5759 5756 5754 5751 5749 5748 5747 5747 5747 5747 5747 5749 5750 5753 5755 5757 5759 5761 5763 5765 5768 5770 5772 5775 5777 5778 5780 5782 5784
5819 5815 5811 5807 5803 5799 5794 5790 5786 5782 5778 5774 5770 5767 5764 5761 5758 5755 5753 5751 5750 5749 5749 5749 5750 5751 5752 5754 5756 5758 5760 5762 5764 5766 5768 5770 5772 5773 5775 5777 5779 5780 5782
5822 5819 5815 5811 5807 5803 5799 5795 5791 5787 5783 5779 5775 5772 5769 5766 5763 5760 5758 5756 5755 5754 5753 5753 5754 5754 5756 5757 5759 5761 5762 5764 5765 5767 5768 5770 5771 5773 5774 5776 5777 5779 5781
5826 5822 5819 5815 5812 5808 5804 5800 5796 5792 5788 5785 5781 5778 5774 5772 5769 5766 5764 5762 5761 5760 5759 5759 5759 5759 5760 5761 5762 5763 5765 5766 5767 5768 5769 5771 5772 5773 5774 5776 5777 5779 5780
5828 5825 5822 5819 5815 5812 5808 5805 5801 5797 5794 5790 5787 5784 5781 5778 5775 5773 5770 5769 5767 5766 5765 5764 5764 5764 5764 5765 5765 5766 5767 5768 5769 5770 5771 5772 5773 5774 5775 5776 5777 5778 5779
5830 5827 5824 5822 5819 5816 5813 5809 5806 5803 5799 5796 5792 5789 5787 5784 5781 5779 5777 5775 5773 5772 5771 5770 5769 5769 5768 5769 5769 5770 5771 5771 5772 5773 5774 5774 5775 5776 5776 5777 5778 5778 5779
5831 5828 5826 5823 5821 5818 5816 5813 5810 5807 5804 5801 5798 5795 5792 5789 5787 5785 5782 5781 5779 5777 5776 5775 5774 5774 5773 5773 5774 5774 5774 5775 5775 5776 5776 5777 5777 5778 5778 5779 5779 5780 5780
5831 5829 5827 5824 5822 5820 5818 5815 5813 5810 5808 5805 5802 5800 5797 5795 5792 5790 5788 5786 5784 5783 5782 5780 5779 5779 5778 5778 5778 5778 5778 5778 5778 5778 5778 5779 5779 5780 5780 5781 5781 5781 5782
5830 5828 5826 5825 5823 5821 5819 5817 5815 5813 5810 5808 5806 5804 5801 5799 5797 5795 5793 5791 5789 5788 5786 5785 5784 5783 5783 5782 5782 5781 5781 5781 5781 5781 5781 5781 5782 5782 5782 5782 5783 5783 5783
5828 5827 5825 5824 5822 5820 5819 5817 5815 5813 5812 5810 5808 5806 5804 5802 5800 5798 5797 5795 5793 5792 5790 5789 5788 5787 5786 5786 5785 5785 5784 5784 5784 5784 5784 5784 5784 5784 5784 5784 5784 5783 5783
5826 5824 5823 5822 5820 5819 5817 5816 5814 5813 5811 5810 5808 5807 5805 5804 5802 5801 5799 5797 5796 5795 5793 5792 5791 5790 5789 5788 5788 5787 5787 5786 5786 5786 5785 5785 5785 5785 5784 5784 5784 5784 5783
5822 5821 5820 5819 5817 5816 5815 5814 5813 5811 5810 5809 5808 5806 5805 5804 5802 5801 5800 5798 5797 5796 5795 5794 5793 5792 5791 5790 5789 5789 5788 5787 5787 5786 5786 5785 5785 5785 5784 5784 5783 5783 5782
5816 5816 5815 5814 5813 5812 5811 5810 5809 5809 5808 5807 5806 5805 5803 5802 5801 5800 5799 5798 5797 5796 5795 5794 5793 5792 5791 5790 5789 5788 5788 5787 5786 5786 5785 5785 5784 5784 5783 5783 5782 5781 5781
5810 5809 5809 5809 5808 5807 5807 5806 5805 5804 5804 5803 5802 5801 5801 5800 5799 5798 5797 5796 5795 5794 5793 5792 5791 5790 5790 5789 5788 5787 5786 5786 5785 5784 5784 5783 5782 5782 5781 5780 5780 5779 5778
5802 5802 5802 5802 5802 5801 5801 5801 5800 5799 5799 5798 5798 5797 5796 5796 5795 5794 5793 5793 5792 5791 5790 5789 5788 5788 5787 5786 5785 5785 5784 5783 5782 5782 5781 5780 5780 5779 5778 5777 5776 5775 5774